Other Surface Observations
Issued by NWS Charleston, SC

Home | Current Version | Previous Version | Text Only | Print | Product List | Glossary On
Versions: 1 2 3 4 5 6 7 8 9 10 11 12 13 14 15 16 17 18 19 20 21 22 23 24 25 26 27 28 29 30 31 32 33 34 35 36 37 38 39 40 41 42 43 44 45 46 47 48 49 50
000
SXUS52 KCHS 290127
OSOCHS

MARINE OBSERVATIONS
NATIONAL WEATHER SERVICE CHARLESTON SC
900 PM EDT TUE JUL 28 2015

...DOWNTOWN CHARLESTON AND HARBOR...

CITY           SKY/WX    TMP DP  RH WIND       PRES   REMARKS
WATERFRONT PRK   N/A     82  76  82 E6        29.93S

...LAKE MOULTRIE...

CITY           SKY/WX    TMP DP  RH WIND       PRES   REMARKS
PINOPOLIS      NOT AVBL

...LAKE AND SUPPLEMENTAL COASTAL OBSERVATIONS...

STATION/POSITION TIME  TEMP    WIND        PRES    WAVE   SWELL
                       AIR SEA DIR/SP/G            HT/PER HT/PER/DIR
                 (UTC) (F)     (DEG/KT/KT) (MB)    (FT/S) (FT/S/D)
FORT PULASKI     0100   82 86   80/ 12/ 14 1014.8F
SAPELO ISLAND    0100   81      70/  4     1014.0S
UPR LAKE MARION  NOT AVBL
WINYAH BAY       0045   81      80/  8     1013.0F
LAKE MURRAY      0100   80     120/  3/  4 1013.9S
ACE BASIN NERRS  0045   81        CALM     1015.0R


...C-MAN AND BUOY OBSERVATIONS...

STATION/POSITION TIME  TEMP    WIND        PRES    WAVE   SWELL
                       AIR SEA DIR/SP/G            HT/PER HT/PER/DIR
                 (UTC) (F)     (DEG/KT/KT) (MB)    (FT/S) (FT/S/D)
BUOY 41004       0050   83 84   70/  8/ 10 1013.8R   3/ 6   3/ 6
BUOY 41008       0050   82 82   60/ 12/ 14 1013.8F   2/ 4   2/140/ 6
FOLLY BEACH CMAN 0100   81      70/ 11/ 13 1014.7R
CAPERS NS BUOY   0008   82      80/ 12/ 16 1014.3R
FRIPP NS BUOY    0000   82      90/ 14/ 16 1013.7R
5E ST. MARYS GA  0051      81                N/A     2/ 5


STATION/POSITION TIME  TEMP    WIND        PRES    WAVE   SWELL
                       AIR SEA DIR/SP/G            HT/PER HT/PER/DIR
                 (UTC) (F)     (DEG/KT/KT) (MB)    (FT/S) (FT/S/D)
FRYING PAN BUOY  0050   83 84   70/ 10/ 14 1014.7R   4/ 7   3/140/ 7
BUOY 41025       NOT AVBL
CAPE LOOKOUT NC  0100   81      80/ 10/ 11 1014.9R
BUOY 41002       0050   82 82  230/ 17/ 19 1013.7R   8/ 8   2/ 70/11
BUOY 41010       0020   84 84  190/ 17/ 21 1013.7F
ST AUGUSTINE FL  0100   81 82  350/  9/ 10 1014.3R

$$



USA.gov is the U.S. government's official web portal to all federal, state and local government web resources and services.